Volver al catálogo

FENGYUN 1C DEB

ActivoPO
NORAD 30414·DEBRIS·🇨🇳 China

Lanzado May 10, 1999 desde Taiyuan Satellite Launch Center

Loading…

Próximos Pases (próximas 24 horas)

TLE

ActualizadoSource: Space-Track

Época: Sep 14, 2026, 10:23 UTC

1 30414U 99025AED 26257.43266200  .00003162  00000-0  10622-2 0  9997
2 30414  99.1014  74.5605 0056401 101.3728 259.3800 14.37029084 10357

Sigue FENGYUN 1C DEB en tiempo real con AllMySat

Download on the App Store